Roseburg, OR

6:15 PM PST on November 16, 2019 (GMT -0800)
Roseburg Regional

Weather History for KRBG - July, 2019

Change the Weather History Date:

Wednesday, July 24, 2019

  Actual Average Record
Temperature  
Mean Temperature 70 °F 72 °F  
Max Temperature 87 °F 86 °F 101 °F (2006)
Min Temperature 53 °F 57 °F 48 °F (1957)
Degree Days  
Heating Degree Days 0 0  
Month to date heating degree days 8  
Since 1 June heating degree days 91  
Since 1 July heating degree days 8  
Cooling Degree Days 4 7  
Month to date cooling degree days 127  
Year to date cooling degree days 197  
Since 1 June cooling degree days 177  
Growing Degree Days 20 (Base 50)    
Moisture  
Dew Point 46 °F    
Average Humidity 48    
Maximum Humidity 83    
Minimum Humidity 22    
Precipitation  
Precipitation 0.00 in 0.01 in 0.02 in (1947)
Month to date precipitation 0.35  
Year to date precipitation 19.11  
Sea Level Pressure  
Sea Level Pressure 30.16 in    
Wind  
Wind Speed 5 mph (North)    
Max Wind Speed 17 mph    
Max Gust Speed 24 mph    
Visibility 10 miles    
Events      
T = Trace of Precipitation, MM = Missing Value Source: NWS Daily Summary

Daily Weather History Graph

Daily Weather History Graph

Search for Another Location

Airport or City:

Astronomy

Jul. 24, 2019 Rise Set
Actual Time 5:55 AM PDT 8:43 PM PDT
Civil Twilight 5:22 AM PDT 9:17 PM PDT
Nautical Twilight 4:39 AM PDT 9:59 PM PDT
Astronomical Twilight 3:50 AM PDT 10:47 PM PDT
Moon 12:23 AM PDT (7/24) 1:23 PM PDT (7/24)
Length of Visible Light 15h 55m
Length of Day
14h 48m
Waning Gibbous, 53% of the Moon is Illuminated
Jul 24
Waning Gibbous
Jul 24
Last Quarter
Jul 31
New
Aug 7
First Quarter
Aug 15
Full

Hourly Weather History & Observations

Time (PDT) Temp. Dew Point Humidity Pressure Visibility Wind Dir Wind Speed Gust Speed Precip Events Conditions
12:53 AM 60.1 °F 48.0 °F 64% 30.23 in 10.0 mi North 3.5 mph - N/A   Clear
1:53 AM 57.9 °F 48.9 °F 72% 30.23 in 10.0 mi Calm Calm - N/A   Clear
2:53 AM 55.9 °F 48.0 °F 75% 30.24 in 10.0 mi Calm Calm - N/A   Clear
3:53 AM 55.0 °F 48.0 °F 77% 30.24 in 10.0 mi Calm Calm - N/A   Clear
4:53 AM 54.0 °F 48.0 °F 80% 30.25 in 10.0 mi Calm Calm - N/A   Clear
5:53 AM 53.1 °F 46.9 °F 80% 30.26 in 10.0 mi Calm Calm - N/A   Clear
6:53 AM 53.1 °F 48.0 °F 83% 30.26 in 10.0 mi Calm Calm - N/A   Clear
7:53 AM 55.9 °F 48.0 °F 75% 30.27 in 10.0 mi Calm Calm - N/A   Clear
8:53 AM 61.0 °F 50.0 °F 67% 30.26 in 10.0 mi NNE 5.8 mph - N/A   Clear
9:53 AM 64.9 °F 50.0 °F 58% 30.24 in 10.0 mi North 6.9 mph - N/A   Clear
10:53 AM 69.1 °F 51.1 °F 53% 30.22 in 10.0 mi North 10.4 mph - N/A   Clear
11:53 AM 73.0 °F 51.1 °F 46% 30.19 in 10.0 mi NNE 5.8 mph - N/A   Clear
12:53 PM 78.1 °F 48.9 °F 36% 30.16 in 10.0 mi NNE 12.7 mph 18.4 mph N/A   Clear
1:53 PM 81.0 °F 48.0 °F 31% 30.13 in 10.0 mi NE 8.1 mph 19.6 mph N/A   Clear
2:53 PM 84.0 °F 45.0 °F 25% 30.11 in 10.0 mi North 12.7 mph 19.6 mph N/A   Clear
3:53 PM 84.9 °F 44.1 °F 24% 30.09 in 10.0 mi North 13.8 mph - N/A   Clear
4:53 PM 86.0 °F 43.0 °F 22% 30.07 in 10.0 mi North 17.3 mph - N/A   Clear
5:53 PM 86.0 °F 43.0 °F 22% 30.06 in 10.0 mi North 17.3 mph 24.2 mph N/A   Clear
6:53 PM 84.0 °F 43.0 °F 24% 30.04 in 10.0 mi NNW 11.5 mph 18.4 mph N/A   Clear
7:53 PM 82.0 °F 43.0 °F 25% 30.05 in 10.0 mi North 8.1 mph - N/A   Clear
8:53 PM 78.1 °F 37.9 °F 24% 30.06 in 10.0 mi North 9.2 mph - N/A   Clear
9:53 PM 75.9 °F 39.9 °F 27% 30.08 in 10.0 mi North 9.2 mph - N/A   Clear
10:53 PM 73.9 °F 41.0 °F 30% 30.08 in 10.0 mi North 4.6 mph - N/A   Clear
11:53 PM 70.0 °F 43.0 °F 38% 30.09 in 10.0 mi Calm Calm - N/A   Clear